GEFSGL_con_probscp_198.txt.gz
Probability
29 30 29 27 26 24 20 16 15 14 11 10 12 13 14 15 16 14 11 10 9 7 6 6 6 7 9 9 8 6 4 4 6 6 5 5 7 9 9 9 7 3 2
32 34 34 32 29 25 21 18 16 15 13 11 12 14 15 16 16 14 13 12 11 8 7 7 7 7 8 9 9 8 7 6 6 6 6 7 8 8 8 7 4 2 1
35 37 38 37 34 28 23 21 20 18 16 14 14 14 15 16 17 15 14 15 14 12 11 11 10 8 7 7 8 9 8 8 8 8 9 9 8 6 5 4 2 1 1
40 39 39 39 37 32 27 25 24 22 19 17 16 15 13 14 15 15 15 16 16 15 14 13 11 8 7 6 7 7 8 8 9 9 10 10 9 6 5 3 2 2 2
46 44 42 39 37 35 32 29 27 25 23 22 20 16 12 10 12 13 14 15 14 14 13 11 9 7 5 5 5 5 7 7 7 8 10 10 8 6 6 5 4 3 3
52 51 47 43 41 40 35 30 28 27 27 26 24 19 14 11 9 9 11 12 12 10 8 8 7 6 5 3 2 2 4 5 5 7 8 7 6 5 5 5 4 3 2
56 55 52 48 45 43 37 30 27 27 27 27 25 22 18 13 9 6 6 8 9 8 6 5 6 6 5 4 2 2 2 2 3 5 5 4 3 3 3 3 3 1 1
60 59 55 50 46 44 39 33 29 29 28 25 24 23 20 14 8 4 3 4 7 8 7 5 5 5 4 4 3 2 1 1 1 2 3 2 1 1 1 1 1 0 0
64 62 59 54 49 45 41 37 35 33 31 27 23 21 18 13 7 2 2 4 7 8 8 6 4 4 2 2 2 1 1 0 0 1 1 1 0 0 0 0 0 0 0
63 62 60 57 52 47 44 41 38 36 33 29 21 17 15 12 6 2 2 6 8 9 9 7 5 3 1 0 1 1 1 0 0 0 0 0 0 0 0 0 0 0 0
57 57 55 53 50 48 46 43 38 34 31 26 18 13 11 9 6 2 2 4 7 9 9 9 6 2 0 0 0 1 1 1 1 1 0 0 0 0 0 0 0 0 0
49 49 47 46 46 47 47 43 36 31 27 22 17 13 11 8 5 3 1 2 4 7 10 9 6 2 0 0 0 1 1 1 1 1 1 1 1 1 1 0 0 0 0
45 44 43 43 44 45 43 39 33 28 25 21 17 15 13 9 6 4 2 1 1 4 7 7 4 1 0 0 0 0 0 0 1 1 2 2 2 2 2 1 0 0 0
44 43 41 39 39 39 36 32 28 25 23 20 18 16 14 10 7 5 4 3 2 2 4 4 2 1 1 1 1 0 0 0 0 1 2 3 3 3 2 1 0 0 0
43 41 37 33 31 31 29 25 21 20 18 16 16 14 11 9 6 5 4 4 4 3 3 2 2 2 3 3 2 1 0 0 0 1 1 1 2 2 2 1 0 0 0
41 36 30 26 23 23 23 20 16 13 10 9 9 9 8 6 4 3 3 3 2 3 3 3 4 4 4 4 3 2 1 1 1 0 0 0 1 1 1 0 0 0 0
37 31 24 20 17 17 19 19 15 10 6 4 4 4 4 3 3 2 1 1 0 1 3 4 5 5 4 4 3 3 3 2 2 1 0 0 0 0 0 0 0 0 0
29 25 19 16 15 16 18 19 18 13 10 7 4 2 1 1 1 1 0 0 0 1 2 3 4 5 5 3 3 3 3 3 3 2 1 1 1 1 1 0 0 0 0
21 19 17 16 16 16 17 18 17 15 13 10 7 3 1 0 0 0 0 0 0 0 1 2 3 4 4 3 2 2 3 3 3 3 3 2 1 1 0 0 0 0 1
15 14 14 16 17 15 14 14 14 13 12 10 8 5 2 0 0 0 0 0 1 1 2 2 3 3 3 3 2 1 2 2 2 2 2 2 1 0 0 0 0 0 1
11 10 10 13 15 13 11 11 10 8 8 8 6 4 2 1 2 1 1 1 1 2 2 2 2 2 2 2 2 1 1 1 1 2 2 1 1 1 0 0 0 0 1
6 6 6 8 10 9 8 8 7 5 5 6 5 3 2 2 3 3 2 1 1 1 1 1 1 1 1 1 2 2 2 2 2 2 2 2 2 2 1 1 0 0 0
3 3 3 4 4 4 4 5 5 4 3 4 5 4 2 3 4 4 3 2 1 0 0 0 0 0 0 1 2 2 3 3 3 3 3 3 3 3 3 2 1 0 0
1 1 0 1 1 1 0 1 2 2 3 4 5 4 3 3 3 3 3 3 2 1 0 0 0 0 0 1 1 1 2 2 3 3 3 3 3 3 3 2 1 0 0
0 0 0 0 0 0 0 0 0 1 3 4 5 4 3 3 3 3 3 4 3 2 0 0 0 0 0 0 0 0 1 1 1 2 3 3 3 3 3 1 1 0 0
0 0 0 0 0 0 0 0 0 1 3 5 4 4 3 3 3 3 4 4 3 1 0 0 0 0 0 0 0 0 0 0 0 1 2 3 3 3 2 1 0 0 0

GEFSGL_con_probscp_204.txt.gz
Probability
52 50 46 41 37 33 31 30 30 28 25 24 25 25 22 21 21 18 16 19 23 21 19 20 18 15 12 8 4 4 4 4 5 6 8 11 10 5 3 5 5 4 3
54 51 46 43 41 38 36 34 33 31 28 27 27 26 24 23 22 21 19 20 22 21 21 20 18 15 13 10 6 5 5 6 6 6 7 9 9 6 3 5 5 5 5
59 56 51 49 49 47 45 42 39 36 32 31 31 29 27 26 25 25 23 22 21 21 20 20 17 15 14 13 10 7 6 6 6 6 7 8 7 5 3 4 4 6 6
64 62 59 57 57 56 54 52 48 42 38 36 35 32 31 30 28 27 26 23 23 22 19 18 16 15 14 12 10 10 7 5 6 6 6 6 6 4 2 2 3 5 5
67 66 63 62 63 64 63 61 57 51 44 41 39 36 33 30 26 25 25 24 24 23 21 18 15 13 11 8 7 8 6 4 5 6 6 6 5 3 1 0 1 2 2
67 66 65 65 67 69 69 67 64 58 49 43 40 37 34 28 20 17 20 23 25 24 23 20 15 11 8 6 4 4 3 3 4 4 5 5 4 1 0 0 0 0 0
66 66 66 67 68 70 69 67 66 61 53 46 40 37 33 25 15 10 13 19 23 23 23 20 16 11 8 5 3 2 2 3 3 3 4 4 3 1 0 0 0 0 0
65 65 65 66 67 67 66 64 63 60 57 51 44 39 34 23 13 7 8 14 20 22 21 19 16 12 8 6 5 4 3 2 2 2 2 2 2 1 0 0 1 0 0
64 64 64 63 64 65 64 61 58 57 56 53 49 44 37 24 13 6 5 11 17 19 18 16 13 11 8 5 5 5 4 2 1 1 1 1 1 0 0 0 0 0 0
61 62 62 60 60 63 63 59 57 55 54 51 49 46 38 26 14 5 4 9 15 17 16 14 10 7 5 4 4 5 4 2 1 0 0 0 0 0 0 0 0 0 0
58 59 58 56 56 58 59 58 55 54 50 48 47 44 36 26 14 4 2 7 13 15 15 13 10 6 3 2 2 3 2 1 0 0 0 0 0 0 0 0 0 0 0
57 57 54 52 51 53 55 54 52 49 46 44 44 41 34 25 15 5 2 3 7 10 11 10 8 5 2 1 1 2 1 0 0 1 1 1 1 1 1 0 0 0 0
54 53 52 50 49 50 51 48 44 43 41 40 41 39 32 26 18 10 4 1 2 3 5 4 3 2 1 0 0 0 0 1 1 2 2 3 3 3 3 1 1 0 0
51 48 47 46 45 46 45 39 35 35 35 35 36 36 31 25 19 12 7 3 1 1 1 2 2 2 2 1 1 1 1 1 2 2 3 4 5 5 4 3 2 1 1
48 45 42 41 41 40 37 30 25 24 25 27 28 28 25 19 14 10 6 3 2 2 2 2 3 4 4 4 3 3 2 1 1 1 2 5 5 4 3 3 3 3 2
46 43 40 38 37 34 29 23 18 14 13 14 15 16 14 11 7 4 2 2 2 3 3 3 3 4 4 4 5 5 4 2 1 1 2 4 4 2 1 2 3 3 3
42 40 38 36 32 28 24 20 17 12 8 7 5 4 5 4 2 1 1 1 2 3 3 3 3 3 4 4 5 5 5 4 3 4 4 4 4 3 2 2 2 2 2
36 36 36 33 27 23 21 22 22 18 13 9 4 1 1 1 0 0 1 2 3 3 3 3 3 4 4 5 5 5 6 6 5 5 5 4 4 5 4 3 2 1 1
32 31 30 28 23 20 20 23 23 21 16 13 9 4 1 1 1 1 3 4 4 4 3 3 3 3 4 4 5 5 7 8 7 6 4 3 4 5 5 4 3 2 1
28 24 22 21 19 18 19 21 22 19 15 14 13 9 4 2 2 3 3 4 4 4 3 2 3 3 4 4 5 6 6 8 9 8 5 3 2 3 4 4 3 2 2
21 17 14 14 16 17 17 19 19 17 14 14 14 10 5 3 3 3 3 3 3 2 2 2 3 3 4 4 4 4 5 6 8 9 7 5 3 3 3 3 2 1 1
15 12 10 10 12 14 14 14 14 13 12 12 12 9 5 4 4 3 2 1 1 1 2 3 3 2 2 2 2 3 4 4 5 6 7 7 6 5 4 4 2 1 1
11 9 9 9 9 9 9 8 8 7 7 8 8 7 6 6 6 4 2 1 1 1 2 3 3 2 2 2 3 3 4 4 3 4 5 6 6 6 5 5 4 3 2
8 7 7 7 5 3 4 4 4 3 2 2 3 3 4 5 5 4 3 3 3 2 2 3 3 3 3 3 3 3 3 3 3 3 3 4 4 4 4 4 4 3 3
6 5 5 4 2 1 2 2 2 1 0 0 0 1 1 2 3 3 4 5 3 2 2 2 3 3 3 3 3 3 2 2 2 3 3 3 3 3 3 3 4 3 2
4 4 4 3 1 0 1 1 1 0 0 0 0 0 0 0 1 2 4 5 2 1 1 2 2 2 3 3 3 3 1 1 1 2 3 3 3 3 3 3 3 2 1

GEFSGL_con_probscp_210.txt.gz
Probability
24 22 18 13 10 8 7 7 8 9 7 5 5 6 7 8 8 10 12 11 8 7 7 6 4 3 3 3 3 3 3 3 3 2 1 0 0 0 0 0 0 0 0
25 24 22 18 15 13 11 10 10 10 9 7 6 5 5 7 9 11 12 12 10 9 7 5 4 3 3 3 3 3 3 3 3 2 1 0 0 0 0 0 0 0 0
26 25 24 22 20 18 16 13 12 11 10 9 8 6 6 8 10 13 14 13 12 10 8 5 4 3 3 3 3 3 3 3 3 2 1 0 0 0 0 0 0 0 0
24 23 22 21 21 19 18 14 12 11 11 12 11 10 10 10 11 14 16 15 13 12 9 7 5 4 3 3 3 3 3 3 3 2 1 0 0 0 0 0 0 0 0
22 21 22 22 21 22 20 16 12 10 12 14 13 13 13 12 12 14 18 17 13 11 10 9 8 6 4 3 3 3 3 3 3 1 0 0 0 0 0 0 0 0 0
23 23 24 24 25 27 26 21 14 11 13 15 15 15 13 12 11 12 15 15 11 10 10 11 11 8 6 4 3 3 3 3 2 1 0 0 0 0 0 0 0 0 0
27 27 28 29 29 31 32 28 21 17 15 15 15 15 13 11 9 7 8 9 9 9 11 12 11 9 7 5 4 3 3 3 2 1 0 0 0 0 0 0 0 0 0
31 32 33 34 33 36 38 36 30 25 21 17 15 14 13 9 5 3 3 5 8 9 10 11 11 9 6 5 5 4 3 2 1 0 0 0 0 0 0 0 0 0 0
35 36 36 36 36 38 41 39 34 30 26 22 18 16 14 10 4 1 1 3 5 6 8 8 9 7 4 3 5 6 5 2 0 0 0 0 0 0 0 0 0 0 0
37 37 36 35 34 37 38 37 34 31 28 25 22 20 16 11 6 1 1 2 2 3 3 4 4 3 2 1 3 5 4 2 1 0 0 0 0 0 0 0 0 0 0
35 34 33 32 31 32 34 33 33 30 27 25 23 20 17 13 7 2 1 2 1 1 1 2 2 1 0 0 1 2 2 2 1 0 0 0 0 0 0 0 0 0 0
29 28 28 29 29 30 29 29 29 28 27 26 23 20 17 13 8 3 1 1 1 0 0 1 1 1 0 0 0 0 1 1 0 0 0 0 0 0 0 0 0 0 0
23 23 23 25 27 27 26 26 26 26 26 25 24 21 18 14 9 5 2 0 0 0 0 0 0 0 0 0 0 0 0 0 0 1 0 0 1 1 0 0 0 0 0
20 19 20 22 25 25 23 21 22 23 23 22 22 20 18 15 11 7 3 1 1 0 0 0 0 0 0 0 0 0 0 0 0 0 0 0 0 1 1 1 1 1 0
19 19 19 21 23 22 19 17 16 17 17 17 16 16 15 13 10 7 4 3 2 1 0 0 0 1 1 1 0 0 0 0 0 0 0 0 1 1 2 2 2 1 1
17 18 19 20 20 19 16 14 12 11 10 9 9 9 9 9 7 4 3 2 2 1 0 0 1 2 2 2 1 1 1 1 0 0 0 1 2 2 2 2 2 1 0
16 17 18 18 17 16 15 14 12 9 7 5 4 4 4 5 4 2 1 1 1 1 1 1 1 3 3 3 3 2 2 2 1 1 1 1 2 1 1 1 1 0 0
14 15 16 16 15 14 13 14 14 12 9 6 4 2 1 2 2 1 0 1 1 1 2 2 3 3 3 3 3 3 3 3 3 2 1 1 1 0 0 0 0 0 0
13 13 13 14 13 12 11 12 13 12 11 9 6 3 1 1 1 0 0 1 2 3 3 3 3 3 3 3 3 3 3 3 3 2 1 0 0 0 0 0 0 0 0
13 12 11 12 11 9 9 10 10 10 10 10 8 5 3 1 1 1 1 1 3 3 3 3 3 3 3 3 3 3 2 2 2 1 1 0 0 0 0 0 0 0 0
14 11 10 9 9 9 9 8 7 7 8 8 8 5 3 2 2 2 2 2 3 3 3 3 3 3 3 3 2 1 1 1 1 0 0 0 0 0 0 0 1 1 1
13 11 8 8 9 9 7 6 5 5 6 7 6 4 3 3 3 3 3 3 3 3 3 3 3 2 2 1 1 0 0 0 0 0 0 0 0 0 0 0 1 2 2
12 10 8 8 9 8 5 4 3 4 5 5 5 3 3 3 3 3 3 3 3 3 3 2 1 1 1 0 0 0 0 0 0 0 0 0 0 0 0 0 0 2 3
10 8 7 8 8 7 4 3 3 3 4 4 4 3 3 3 3 3 3 3 2 2 1 1 0 0 0 0 0 0 0 0 0 0 0 0 0 0 0 0 0 2 3
9 7 6 7 6 5 3 2 1 1 2 2 2 1 1 2 2 2 2 1 1 1 0 0 0 0 0 0 0 0 0 0 0 0 0 0 0 0 0 0 0 1 2
7 6 5 5 5 4 2 1 0 0 1 1 0 0 0 1 1 1 1 0 0 0 0 0 0 0 0 0 0 0 0 0 0 0 0 0 0 0 0 0 0 0 1

GEFSGL_con_probscp_216.txt.gz
Probability
14 15 15 13 10 6 4 4 4 3 3 4 5 6 7 7 7 6 5 4 3 2 3 3 2 3 3 3 3 3 3 3 2 2 3 2 1 0 0 0 0 0 0
17 18 18 14 9 6 5 4 5 6 7 7 7 7 8 8 8 7 5 5 5 6 7 6 6 5 5 4 3 3 3 3 3 3 3 2 1 0 0 0 0 0 0
21 21 20 15 9 7 7 7 7 8 9 9 9 10 9 8 8 7 6 6 9 12 12 12 11 10 9 6 4 4 4 4 3 3 3 2 1 0 0 0 0 0 0
22 21 20 16 12 10 10 11 11 10 8 8 9 9 8 7 7 6 6 7 10 13 14 14 14 13 12 9 6 6 6 5 4 4 3 3 1 0 0 0 0 0 0
20 20 18 15 12 11 13 16 16 13 10 8 9 9 8 8 7 6 7 9 11 11 12 13 12 12 11 9 7 7 7 6 6 5 4 4 2 1 0 0 0 0 0
19 19 17 14 11 11 13 16 16 14 12 11 11 12 11 10 8 5 6 9 10 10 10 10 9 9 9 7 6 6 5 5 5 5 5 5 4 2 1 0 0 0 0
19 20 19 15 12 11 11 11 11 12 12 13 13 13 13 12 9 5 4 7 9 10 9 8 7 7 7 7 6 5 4 3 2 3 5 6 5 4 1 0 0 0 0
21 22 19 15 13 12 12 11 12 13 13 12 11 11 11 11 8 4 3 5 8 10 9 9 7 6 6 6 7 6 5 3 1 2 3 5 5 4 2 0 0 0 0
24 22 19 16 14 15 14 15 16 16 15 13 10 8 8 8 6 3 3 6 9 9 9 9 7 6 5 5 6 7 6 5 3 2 1 2 2 1 1 0 0 0 0
23 21 20 19 19 18 17 18 18 17 17 15 11 8 7 7 5 2 2 5 8 9 9 8 6 4 3 3 4 5 6 6 5 3 2 1 1 0 0 0 0 0 0
18 19 20 22 22 21 19 19 18 16 16 15 13 10 8 7 4 1 1 3 6 8 8 7 5 2 1 1 2 3 4 5 5 5 4 3 2 1 0 0 0 0 0
15 17 19 21 22 22 21 19 17 16 15 15 14 13 10 7 4 2 1 1 3 6 7 6 3 2 0 0 1 1 1 2 3 4 5 5 3 2 1 1 0 0 0
16 17 19 20 20 20 21 19 18 17 16 15 16 16 13 10 7 5 3 1 2 3 4 3 1 1 0 0 0 0 0 1 2 3 3 3 4 4 3 2 1 0 0
19 18 19 19 18 18 19 19 17 16 15 15 17 18 16 13 11 9 6 3 2 2 2 2 1 1 0 0 0 0 0 0 1 1 1 2 4 5 5 3 1 0 0
18 17 16 15 15 16 17 17 15 14 13 14 16 17 15 13 10 8 6 4 3 2 2 2 2 2 1 1 1 1 0 0 0 0 0 0 2 4 5 4 2 0 0
15 14 12 11 13 14 15 15 13 11 9 9 10 10 10 8 5 3 2 3 3 3 3 3 3 3 3 2 2 2 1 1 1 0 0 0 1 2 3 3 3 2 0
12 11 10 10 11 13 14 15 14 10 6 4 3 4 4 2 1 0 0 1 1 1 3 3 3 3 3 3 3 3 3 2 2 1 1 1 2 2 2 3 4 3 1
10 9 10 11 11 12 14 15 14 11 8 4 1 0 0 0 0 0 0 0 1 1 3 3 3 3 3 3 3 3 3 3 3 3 2 3 3 3 3 3 3 3 2
9 9 9 10 10 11 13 14 13 11 8 6 2 0 0 0 0 0 0 1 1 2 3 3 3 3 3 3 3 3 3 3 3 3 3 3 3 3 3 3 3 1 1
8 7 7 7 7 8 11 12 11 8 7 5 4 1 0 0 0 1 1 1 2 3 3 3 3 3 3 3 3 3 3 3 3 3 3 3 3 3 3 3 2 1 0
7 6 5 5 5 6 9 10 8 6 4 4 3 2 0 0 0 1 2 2 3 3 3 3 3 3 3 3 3 3 3 3 3 3 3 3 3 3 3 2 1 0 0
6 6 5 5 6 7 8 8 6 3 2 3 3 2 0 0 0 0 1 2 3 3 3 3 3 3 3 3 3 3 3 3 3 3 3 3 3 2 1 1 0 0 0
5 6 6 6 7 7 7 6 4 2 1 1 2 2 1 0 0 0 0 1 3 3 3 3 3 3 3 3 3 3 3 3 3 3 3 3 2 1 0 0 0 0 0
4 6 6 7 7 6 6 6 4 2 1 1 2 2 1 0 0 0 0 1 2 2 2 3 3 3 3 3 3 3 3 3 2 2 2 1 1 0 0 0 0 0 0
4 5 6 6 6 5 6 6 5 4 2 2 3 3 1 0 0 0 0 0 1 1 1 1 2 2 2 2 2 2 2 1 1 1 1 0 0 0 0 0 0 0 0
4 5 6 6 6 5 6 6 6 5 4 3 3 3 2 1 0 0 0 0 0 0 0 0 1 1 1 1 1 1 1 0 0 0 0 0 0 0 0 0 0 0 0

GEFSGL_con_probscp_222.txt.gz
Probability
30 29 26 24 24 23 20 18 16 13 11 11 12 12 12 13 14 15 16 19 21 20 18 18 19 19 19 20 20 18 16 16 11 7 5 6 6 6 6 6 5 6 7
29 29 29 29 27 24 21 20 19 16 13 12 12 12 13 14 16 18 19 22 25 23 20 21 21 20 21 23 23 19 17 16 13 9 7 8 8 7 8 8 6 5 6
27 29 31 31 29 25 22 22 23 20 16 12 10 11 13 15 17 19 22 27 30 29 26 26 26 24 24 26 26 23 21 19 17 13 9 10 11 10 10 8 7 7 6
27 28 29 29 28 25 24 24 24 22 18 13 11 11 12 14 16 19 23 27 31 33 32 32 32 28 25 26 27 26 25 23 20 15 10 10 12 12 11 10 9 9 10
31 29 28 28 26 24 24 25 25 23 20 18 18 16 14 14 15 18 21 24 29 31 31 32 32 28 22 20 21 22 24 24 23 17 13 13 14 13 12 11 11 10 11
36 33 31 30 28 27 26 26 24 22 20 21 23 23 20 16 13 13 16 21 25 25 25 26 27 25 19 15 12 12 15 19 21 20 19 18 17 14 12 12 11 10 9
39 38 36 34 32 30 30 28 24 21 20 22 24 26 24 17 10 8 10 16 20 20 21 22 22 23 22 18 13 9 9 11 14 18 21 21 20 18 15 13 11 10 9
42 42 40 37 34 32 32 30 26 22 21 22 25 28 26 18 9 6 7 12 16 18 19 19 19 20 22 22 20 16 14 12 10 11 15 17 17 17 17 13 10 9 8
43 42 41 40 37 34 32 32 29 25 24 25 27 28 26 18 9 5 6 11 17 20 19 16 15 15 16 18 20 21 20 17 11 6 7 9 10 10 11 10 8 6 5
39 38 39 41 39 36 34 33 32 31 30 29 28 26 23 18 11 6 6 12 19 22 20 15 11 10 9 11 15 19 20 20 15 9 6 6 7 6 6 7 6 5 4
30 32 35 37 36 34 34 34 33 33 32 30 28 25 22 17 12 7 7 11 18 21 20 15 11 7 4 4 9 13 15 16 16 14 11 9 8 8 8 7 7 7 6
25 26 28 29 28 28 30 31 31 30 28 27 26 24 22 18 13 8 6 7 12 17 17 15 12 6 2 1 3 6 7 10 14 15 13 11 10 10 11 10 9 8 7
26 23 21 21 21 23 26 27 27 26 24 24 24 23 20 18 15 11 7 4 5 10 13 12 9 5 2 1 1 2 3 7 12 13 12 11 10 10 11 12 11 9 7
27 24 21 19 18 20 22 22 22 23 23 23 22 19 17 16 15 14 12 8 5 6 9 8 6 4 3 3 2 2 3 6 9 10 9 9 9 9 9 11 12 10 8
28 26 23 19 17 17 17 17 17 19 20 20 18 15 13 12 13 14 14 12 7 5 6 7 7 7 7 6 5 4 4 5 6 6 6 7 8 7 7 9 11 10 8
24 23 23 20 17 15 14 13 13 13 13 13 11 9 8 8 8 8 8 8 5 3 5 9 11 10 9 9 8 6 5 5 5 5 6 7 7 7 7 7 9 8 7
19 20 22 21 17 14 12 12 12 10 9 7 6 4 4 4 4 3 2 2 1 1 3 7 10 10 9 9 9 8 8 7 7 6 6 6 6 7 7 7 6 5 5
17 18 21 21 18 15 13 12 12 11 11 9 7 3 2 1 1 0 0 0 0 1 2 5 7 8 8 7 8 8 9 9 9 8 6 5 5 5 7 7 5 4 4
17 16 17 19 18 16 13 12 12 14 14 13 10 6 3 2 1 1 0 1 2 2 2 3 4 6 7 6 7 8 9 9 9 9 8 7 5 4 5 5 4 4 4
13 11 12 14 15 14 12 10 12 14 14 14 12 9 7 6 5 3 2 2 3 3 3 3 3 6 7 7 8 9 9 9 9 9 9 8 6 4 4 4 3 3 3
7 6 7 9 10 10 10 10 10 11 12 12 12 10 8 7 7 5 3 3 3 3 4 4 5 6 7 8 9 9 8 8 9 8 8 6 5 4 3 3 3 3 3
4 4 4 5 6 7 8 9 10 10 9 9 10 8 6 6 6 5 4 3 3 3 3 4 5 5 7 8 9 8 7 7 7 7 7 5 4 3 3 3 3 3 3
3 3 3 3 4 4 6 8 9 9 7 7 8 7 5 4 5 4 3 3 3 3 3 4 4 4 5 6 7 7 6 5 6 6 6 6 5 4 3 3 3 3 3
3 2 2 3 3 3 5 7 8 7 7 6 7 8 6 4 4 3 3 3 3 4 4 4 5 4 3 4 4 5 4 4 5 6 6 5 4 3 3 3 3 3 3
3 3 2 2 3 3 4 5 6 6 6 7 8 8 6 4 3 3 3 3 4 5 5 5 5 3 2 2 3 3 3 3 3 4 5 4 3 3 3 3 3 3 3
3 3 2 1 2 3 4 4 5 6 6 7 8 8 6 4 3 3 3 3 4 5 5 5 4 3 2 1 1 1 1 1 1 2 3 4 3 3 3 3 3 3 3

GEFSGL_con_probscp_228.txt.gz
Probability
49 47 44 41 38 35 31 30 30 30 28 27 25 25 24 21 19 19 18 18 19 17 16 17 18 19 20 20 21 22 21 18 14 10 9 14 20 21 16 15 13 9 6
53 49 46 43 41 39 36 36 37 37 33 28 24 23 21 19 19 19 19 19 18 17 18 19 20 21 22 21 22 25 25 23 18 13 11 14 18 18 17 15 12 9 8
53 51 48 46 45 43 41 40 43 42 36 28 22 20 18 16 16 16 16 17 18 18 19 20 21 23 24 23 23 26 27 25 22 18 14 14 15 17 16 14 11 9 8
53 51 50 50 48 45 43 43 44 43 37 29 23 19 17 15 14 12 12 14 17 18 20 22 23 24 25 24 22 23 23 23 23 21 18 16 16 17 16 13 11 9 7
57 56 55 53 50 46 44 44 44 42 38 34 28 23 20 16 14 12 12 14 16 19 22 25 25 23 21 19 18 18 20 23 24 21 20 19 19 20 19 16 12 9 6
61 61 59 56 52 47 43 41 41 41 39 36 32 29 25 19 13 13 15 16 18 20 22 24 23 19 17 16 15 13 15 20 20 18 19 20 21 23 22 18 15 11 7
60 60 58 55 52 49 45 40 37 39 40 38 35 32 28 19 13 11 14 17 20 21 21 22 21 18 17 19 16 12 12 13 14 14 17 18 20 23 23 20 17 14 10
56 57 56 54 52 50 47 43 39 39 42 42 39 35 28 18 11 9 12 17 21 21 22 24 25 22 17 18 18 15 14 13 9 9 12 14 14 18 21 19 18 15 13
53 54 55 54 53 50 49 47 44 41 41 41 38 35 28 19 12 8 10 18 24 25 25 25 27 24 16 13 15 17 18 15 10 7 7 7 6 8 13 16 16 15 14
47 48 51 52 51 49 48 47 45 41 39 36 34 32 28 22 15 9 10 17 25 28 28 26 23 19 14 9 11 16 18 16 12 10 8 5 3 3 5 10 16 17 15
41 40 41 42 42 43 44 42 40 38 36 33 33 32 29 23 15 9 8 14 21 26 28 25 18 13 8 4 7 13 14 14 14 14 13 9 6 5 4 8 15 19 19
37 35 32 32 34 37 39 37 36 34 32 31 31 32 30 24 15 8 5 7 13 18 22 20 14 8 3 1 3 7 9 10 12 14 15 14 11 9 8 10 15 18 19
32 31 29 28 30 32 34 34 33 31 28 27 28 28 28 24 17 10 5 3 5 9 12 12 8 4 2 1 2 3 5 8 11 13 15 16 15 13 12 12 14 16 16
27 27 27 26 26 27 29 29 29 28 25 23 23 24 24 23 18 13 8 5 3 4 6 7 5 3 3 5 6 5 6 9 11 12 14 17 17 15 12 12 13 13 13
25 23 23 22 20 21 23 23 21 20 18 17 17 20 21 21 17 13 11 8 6 5 6 7 8 7 8 9 11 10 9 9 11 11 12 14 14 12 11 11 11 12 11
24 22 19 18 17 17 18 16 13 10 9 9 10 13 16 16 13 10 9 8 7 6 8 10 12 13 12 12 13 12 10 10 10 10 10 10 11 10 10 10 10 9 9
22 20 17 16 16 16 15 13 10 8 7 7 6 6 8 8 7 5 5 5 5 5 8 11 13 13 13 13 13 12 11 11 11 11 11 11 11 9 8 9 8 7 7
18 17 15 15 16 15 14 13 12 11 11 11 9 5 3 2 2 2 2 3 4 5 9 12 13 13 13 14 13 12 12 13 12 12 12 11 10 8 7 7 7 6 6
12 13 13 14 15 16 15 13 12 12 12 14 14 9 4 1 1 1 2 5 7 8 10 11 13 14 14 14 13 11 11 11 11 11 10 9 8 7 6 6 6 6 6
9 9 10 11 13 14 14 12 10 8 9 12 14 12 7 5 5 4 5 7 9 10 10 10 12 13 13 11 10 9 8 7 7 8 9 8 7 6 6 6 6 6 6
6 6 6 8 10 12 12 11 8 6 7 9 10 10 8 8 9 9 8 9 10 10 10 10 11 12 11 8 7 6 6 6 6 6 7 7 7 6 6 6 6 6 6
6 4 4 6 7 9 10 9 7 5 5 6 8 7 6 7 10 11 11 11 12 11 11 10 10 10 9 7 6 5 5 6 7 6 5 6 5 4 5 6 6 5 5
6 5 4 5 6 6 6 6 5 4 4 5 6 6 6 7 10 11 11 12 12 12 12 11 10 8 7 6 6 6 6 6 6 5 4 3 3 2 3 4 5 4 4
6 6 4 4 4 4 4 4 4 3 3 3 4 6 7 9 9 9 11 12 11 11 11 10 9 6 4 5 6 6 6 5 5 4 2 2 1 1 2 3 3 3 3
6 6 5 3 2 3 4 4 3 3 3 2 2 5 7 9 8 8 10 11 11 9 9 8 7 6 5 5 6 6 5 4 3 3 3 2 2 2 2 1 1 1 2
6 6 6 3 2 3 5 5 4 3 3 1 1 3 6 9 9 8 10 11 11 9 8 7 7 6 6 6 6 4 2 1 1 2 3 3 3 3 2 2 1 0 1

GEFSGL_con_probscp_234.txt.gz
Probability
26 24 21 18 18 18 17 16 15 11 9 8 6 6 5 4 2 1 0 0 0 0 0 0 0 0 0 0 0 1 1 1 1 1 0 0 1 1 1 1 1 1 1
28 27 25 23 21 19 17 17 16 14 11 9 7 5 4 3 2 1 1 0 1 1 1 0 0 0 0 0 1 2 2 2 2 2 1 1 2 2 2 2 2 2 2
30 31 30 29 26 20 17 17 17 16 13 11 8 5 4 4 3 2 2 2 2 2 2 1 1 1 1 1 3 3 4 4 4 3 3 3 3 3 3 3 4 3 3
33 35 35 34 30 23 18 17 18 17 14 11 9 6 4 4 4 3 2 2 3 3 3 3 3 3 3 4 5 5 6 7 5 4 3 3 3 3 4 5 5 4 4
35 36 38 37 34 29 23 21 20 18 16 13 11 8 6 5 5 4 2 2 3 3 4 5 5 5 6 6 6 7 8 9 7 4 3 3 3 3 3 4 5 5 5
35 35 34 34 35 33 30 27 24 21 18 17 15 12 10 7 5 4 3 3 4 5 5 7 7 7 7 7 7 8 8 8 7 5 4 3 3 3 4 5 6 6 6
34 32 30 32 34 33 32 31 28 24 20 19 18 17 16 12 7 4 3 4 6 7 7 8 7 7 7 7 8 8 8 7 7 6 5 4 3 3 5 6 6 6 6
31 30 31 33 33 32 32 32 30 27 24 23 21 20 19 15 7 3 2 4 6 8 8 7 7 6 6 7 8 8 8 7 6 5 5 4 3 2 3 5 5 4 4
31 31 32 34 34 33 32 31 31 30 28 27 25 21 17 12 8 4 3 5 7 7 7 6 6 5 5 6 7 7 7 6 5 3 3 3 1 0 1 2 2 2 2
30 31 31 31 32 31 30 29 30 29 28 27 25 19 13 10 8 5 4 5 8 9 7 6 5 3 3 3 4 6 6 5 4 2 2 1 0 0 0 1 2 3 4
27 27 25 24 25 25 24 24 25 25 23 23 22 17 13 10 8 6 5 5 8 10 9 8 5 3 2 1 2 5 5 4 4 4 3 2 1 0 1 2 4 5 5
21 20 19 17 16 16 16 18 20 20 19 19 18 16 13 11 9 7 5 4 6 9 10 9 7 4 2 1 1 2 3 3 4 5 4 4 3 3 4 5 5 5 4
16 15 14 13 11 11 12 13 14 15 14 14 14 15 15 14 11 8 5 4 4 6 7 7 6 4 3 2 1 1 1 2 3 5 6 6 7 7 6 6 5 4 2
12 13 12 11 10 9 9 10 11 11 10 9 10 12 14 15 12 8 6 4 4 5 5 4 4 3 3 3 2 1 1 1 3 5 7 9 10 9 7 6 4 3 3
11 12 12 10 9 8 8 8 9 9 8 7 7 8 10 11 9 7 5 5 5 4 4 3 3 3 3 3 4 3 2 2 3 5 8 9 10 9 7 5 4 3 3
12 13 12 9 8 8 8 7 7 8 7 6 5 5 5 5 5 4 3 3 3 3 4 4 4 4 4 4 5 5 4 3 3 4 7 9 10 9 7 5 4 3 3
12 12 11 9 7 7 7 7 7 6 5 3 2 2 2 2 2 1 1 1 1 3 4 5 6 6 6 6 6 6 4 3 3 3 5 7 8 8 6 4 3 3 3
11 11 10 9 8 7 6 6 6 6 5 3 1 0 0 1 1 0 0 1 1 3 5 6 7 8 7 6 6 6 4 3 3 2 3 5 6 5 4 3 3 3 3
9 9 9 9 8 7 6 6 6 6 6 4 2 0 0 0 0 0 1 2 3 4 5 7 8 9 8 7 6 6 5 4 3 2 2 2 2 2 3 3 3 3 3
8 8 8 8 7 7 6 6 6 7 7 6 4 1 0 0 0 0 1 2 3 4 4 6 8 9 9 8 7 7 6 4 3 1 1 1 0 1 1 2 3 3 3
6 7 7 6 6 6 6 6 5 5 7 7 4 2 1 0 0 0 1 2 3 3 3 5 7 9 9 8 8 8 7 5 4 2 1 0 0 0 0 1 2 3 3
5 5 6 5 5 5 4 4 3 2 3 4 3 2 1 1 1 2 2 2 2 2 3 4 7 8 8 7 7 7 7 6 5 3 1 0 0 0 0 0 1 2 2
4 4 5 4 4 4 4 3 1 0 0 1 2 1 1 2 4 4 3 2 1 2 3 3 5 6 7 6 6 6 6 6 5 2 0 0 0 0 0 0 1 1 1
3 3 3 3 3 3 3 2 1 0 0 0 1 1 2 3 3 3 2 1 1 1 2 3 4 5 6 6 5 6 6 5 3 2 1 0 0 0 0 0 0 0 0
2 2 2 2 1 1 1 1 0 0 0 0 0 2 3 3 2 1 1 1 1 1 2 3 4 5 6 5 4 4 3 2 1 2 1 0 0 0 0 0 0 0 0
1 1 1 1 0 0 0 0 0 0 0 0 0 1 3 2 1 2 2 2 1 1 2 3 4 5 5 5 4 2 1 0 0 1 1 1 0 0 0 0 0 0 0

GEFSGL_con_probscp_240.txt.gz
Probability
12 12 10 7 5 5 7 8 10 11 11 10 10 10 9 7 6 5 5 4 4 2 1 2 3 3 2 2 1 1 1 1 1 1 1 0 0 0 0 0 1 1 1
12 11 10 10 8 7 8 11 14 13 12 11 10 9 8 7 6 5 4 5 4 3 1 2 3 3 3 3 2 2 2 3 2 2 2 1 0 0 0 0 1 2 2
12 11 11 13 14 13 13 15 16 15 13 11 10 9 8 6 6 6 5 5 5 3 2 2 3 3 3 5 5 5 5 4 3 3 3 2 1 1 0 1 1 2 2
13 12 13 16 19 20 19 17 16 15 13 11 10 10 9 7 6 7 6 5 4 2 1 1 2 2 4 7 9 9 7 6 5 5 5 4 3 2 2 2 1 1 1
17 17 17 19 21 22 22 19 16 15 13 12 11 11 10 8 7 7 6 4 3 2 1 2 2 2 4 7 9 10 9 8 7 7 8 7 6 6 6 5 4 2 1
24 24 23 23 23 22 21 18 15 13 12 12 12 11 10 9 6 5 5 5 5 4 4 5 5 5 5 6 6 6 7 7 6 7 8 8 9 10 10 9 7 5 4
26 27 27 26 25 23 20 17 15 13 12 12 11 10 9 8 5 3 3 6 7 6 6 8 8 8 7 7 5 4 4 4 4 6 7 7 8 10 10 9 7 6 6
23 24 26 26 24 23 21 19 17 16 15 14 12 12 11 8 4 2 2 5 6 6 7 8 9 8 8 7 6 5 4 3 3 4 5 5 5 6 7 6 5 5 4
19 21 22 22 20 20 21 20 20 18 18 17 16 16 14 11 7 2 2 4 5 6 7 9 9 7 6 4 4 5 5 4 3 2 2 1 1 2 4 4 4 4 4
15 17 18 18 17 17 17 17 17 17 16 16 16 16 16 15 10 4 3 5 7 7 8 9 9 7 4 3 3 4 6 6 4 3 1 1 1 2 2 4 5 4 4
11 13 15 16 15 15 14 13 14 14 13 13 13 13 14 14 10 4 2 5 7 7 8 8 8 6 3 1 2 3 5 5 5 4 3 3 4 4 3 4 6 6 5
9 10 12 14 14 14 14 12 13 14 14 13 11 10 10 10 7 3 1 2 4 5 6 6 5 4 3 1 1 1 2 3 4 4 4 4 5 6 6 6 7 8 7
8 9 10 11 12 12 12 11 12 14 16 15 13 11 11 9 6 2 1 0 1 2 3 3 3 3 3 2 1 1 1 2 3 4 4 4 5 8 8 8 8 8 7
6 7 8 10 12 12 11 10 11 12 13 14 14 13 13 11 7 4 2 1 1 1 1 2 3 3 3 3 3 2 3 3 3 4 4 5 6 8 9 8 7 6 6
5 5 7 10 11 11 10 9 8 8 9 11 12 12 12 11 8 5 3 2 2 2 2 3 3 3 3 3 4 4 4 4 4 4 4 4 4 6 7 7 5 5 6
4 5 8 9 10 10 9 8 7 6 5 6 6 6 7 7 6 2 1 1 2 2 2 2 2 2 3 4 5 6 6 6 5 4 3 3 3 3 4 4 4 5 6
4 4 7 9 10 10 9 7 6 6 4 3 3 2 2 3 2 0 0 0 1 1 1 1 1 1 2 4 6 6 6 6 6 5 4 4 3 3 3 3 3 4 5
3 3 5 9 11 10 9 7 6 6 5 4 3 1 1 1 0 0 0 0 0 0 0 0 0 0 2 4 6 6 6 6 6 6 6 5 4 3 3 2 1 1 2
2 2 3 7 9 10 9 7 6 6 6 5 4 2 1 0 0 0 0 0 0 0 0 0 0 0 1 4 5 6 6 6 6 6 6 6 5 4 3 2 0 0 1
1 0 1 3 5 7 7 5 4 4 4 4 3 3 2 0 0 0 0 0 0 0 0 0 1 1 2 4 4 5 6 6 6 6 6 6 6 6 5 3 1 0 0
0 0 0 0 2 3 3 3 3 3 3 3 4 3 1 0 0 0 0 0 0 0 0 0 1 2 3 4 4 4 5 5 6 6 6 6 6 6 5 3 1 0 0
0 0 0 0 0 0 0 1 2 3 3 4 4 3 1 0 0 0 0 0 0 0 0 0 1 2 3 4 4 4 4 4 5 6 6 6 5 4 4 3 2 1 0
0 0 0 0 0 0 0 1 1 2 3 3 3 3 2 1 1 2 1 0 1 1 1 1 0 1 2 3 3 4 3 4 5 6 6 5 4 3 3 3 3 2 1
0 0 0 0 1 1 1 2 1 1 1 1 1 2 2 2 2 3 2 1 1 2 2 2 1 1 1 2 3 3 3 3 5 6 6 5 4 4 4 3 3 2 2
0 0 0 0 1 2 3 3 2 0 0 0 0 1 1 1 2 2 2 1 1 1 1 2 3 2 2 3 4 3 2 2 3 4 5 5 5 5 5 4 2 1 1
0 0 0 0 1 3 3 3 1 0 0 0 0 0 0 0 1 1 1 0 0 0 1 2 3 3 3 3 3 2 1 0 1 2 4 6 6 6 6 4 1 0 0

GEFSGL_con_probscp_246.txt.gz
Probability
23 23 21 16 11 11 14 17 21 23 23 24 24 23 22 20 17 14 13 15 18 20 21 20 18 16 14 12 11 11 12 11 8 10 15 17 14 9 7 6 7 10 12
24 23 22 19 16 16 17 19 22 22 21 21 21 22 22 22 19 16 14 15 18 20 22 21 19 17 15 13 12 11 11 11 11 13 16 19 17 14 11 9 9 11 13
24 23 22 21 21 21 21 21 22 22 22 21 19 19 21 22 20 17 15 17 18 20 21 20 19 18 16 15 14 13 13 13 15 16 19 21 21 20 18 14 13 15 14
25 24 24 24 24 23 23 22 22 24 25 24 22 21 21 22 21 17 16 17 19 19 19 17 16 16 15 14 14 15 14 15 16 19 21 22 22 24 23 19 17 16 16
34 32 29 28 26 24 23 23 24 26 27 29 28 27 25 23 19 16 15 16 18 20 19 17 15 14 13 12 11 12 13 14 16 20 23 23 24 26 25 23 20 18 16
45 41 35 31 27 25 25 24 26 29 31 33 33 31 30 24 16 11 14 17 20 22 20 17 14 13 12 8 6 5 7 10 13 18 22 23 25 27 27 24 21 18 16
48 45 39 35 31 29 27 26 27 31 34 34 32 30 30 25 15 8 10 17 21 22 21 17 14 12 11 8 6 4 5 7 10 16 20 20 22 25 26 24 22 21 20
45 43 40 37 34 31 30 29 31 32 34 34 31 28 30 27 16 7 8 14 19 21 20 19 18 14 11 9 9 10 11 10 10 13 15 15 17 19 20 23 24 24 23
40 40 38 37 36 35 35 34 34 33 33 33 32 30 31 27 16 6 6 14 19 20 20 21 20 15 10 8 10 14 16 15 12 11 9 8 9 10 13 18 22 22 21
37 36 36 36 37 36 36 36 33 31 31 32 33 33 30 24 14 5 6 14 20 20 20 20 16 11 7 6 9 13 16 15 14 13 9 6 6 6 9 15 17 18 19
35 34 33 33 34 33 33 32 30 28 28 29 30 30 26 19 11 4 4 11 17 18 19 18 14 7 4 4 6 10 12 13 14 14 12 11 10 10 12 15 16 16 17
30 29 27 27 28 28 28 28 27 26 25 24 22 21 20 16 10 5 2 4 8 13 16 16 11 5 1 1 3 5 7 9 10 11 11 12 12 13 13 14 15 15 15
21 20 19 19 20 22 23 23 23 22 20 17 14 13 14 15 13 8 3 1 2 7 10 10 6 2 0 0 1 2 4 8 11 11 10 10 11 12 13 13 14 14 13
12 11 10 11 14 15 17 18 18 17 15 12 11 10 11 14 15 12 8 4 3 4 6 6 4 2 2 2 2 3 5 10 12 13 12 11 10 11 12 13 13 13 12
6 6 7 9 11 11 13 14 15 13 11 10 10 10 10 11 13 12 9 7 5 4 5 7 7 5 5 5 5 5 7 10 12 12 12 11 10 10 11 12 13 12 11
4 5 7 9 10 10 10 12 12 10 7 7 7 7 7 7 7 6 4 4 3 2 4 8 8 7 6 6 6 6 7 9 10 10 11 11 10 10 10 12 12 11 11
5 5 6 7 8 8 9 9 9 8 7 5 4 3 2 2 1 1 0 0 0 1 4 8 8 6 5 6 6 6 7 7 8 9 9 10 10 9 10 11 11 11 11
5 5 5 5 5 6 6 6 7 8 8 7 3 1 0 0 0 0 0 1 1 2 5 7 7 6 5 5 5 6 6 6 7 7 8 9 10 9 9 9 10 10 9
5 4 4 5 3 3 3 4 5 7 8 7 5 2 1 0 0 0 1 3 3 3 4 5 5 6 6 5 4 5 6 7 7 6 7 8 9 9 9 9 9 9 8
5 4 3 3 3 1 2 2 3 5 6 5 4 3 1 0 0 1 2 3 3 3 3 4 4 5 6 5 4 4 5 7 7 6 7 7 9 9 9 9 8 8 8
3 2 2 2 2 1 1 1 2 3 5 5 4 3 2 1 1 2 3 3 3 3 3 3 4 4 5 5 4 4 4 5 6 6 6 7 7 9 9 8 8 7 7
1 1 0 1 1 0 0 0 1 3 5 5 5 3 1 1 2 2 2 3 2 1 1 3 3 3 4 4 4 4 3 3 4 5 6 6 6 7 8 8 7 6 6
0 0 0 0 0 0 0 0 1 3 5 6 5 3 2 2 3 2 1 1 1 1 1 2 3 3 3 3 4 4 3 3 3 4 4 5 6 5 6 7 7 6 6
0 0 0 0 0 0 0 0 1 3 5 6 5 3 3 2 2 1 0 0 0 0 0 1 2 1 1 2 2 2 1 2 3 3 3 4 5 4 4 6 6 6 6
0 0 0 0 0 0 0 0 2 4 6 6 5 3 2 1 1 1 0 0 0 0 0 0 0 0 0 1 1 0 0 1 1 2 3 3 4 3 4 6 6 6 6
0 0 0 0 0 0 0 1 3 5 6 6 5 3 1 0 0 0 0 0 0 0 0 0 0 0 0 0 0 0 0 0 0 1 2 3 3 3 4 6 6 6 6

GEFSGL_con_probscp_252.txt.gz
Probability
43 42 40 37 34 30 28 28 27 26 26 26 26 23 19 17 19 19 17 17 17 17 14 13 15 16 15 15 16 13 11 10 12 13 11 9 12 14 13 12 12 12 11
45 44 44 43 39 34 31 30 31 31 30 29 28 25 20 17 19 19 17 17 17 16 14 13 13 13 12 12 13 13 11 11 12 13 11 12 14 15 15 14 12 11 11
49 48 49 49 45 41 37 35 36 36 34 31 30 26 21 19 20 19 18 18 17 15 13 13 13 12 12 10 10 11 10 10 12 11 10 13 17 17 17 15 14 13 12
54 54 53 52 51 48 44 41 39 37 34 32 30 25 21 20 20 20 20 19 17 15 15 15 14 13 13 11 9 9 9 11 12 10 8 11 15 18 20 18 16 15 13
58 57 56 56 55 53 49 46 42 37 33 32 30 25 20 17 17 19 20 20 20 19 19 17 15 12 11 9 7 7 9 11 13 11 8 8 10 15 18 16 14 13 12
57 57 57 57 56 54 53 51 47 41 37 34 32 28 22 17 13 14 19 22 24 25 24 22 17 14 12 8 5 4 5 7 10 10 9 10 11 12 13 12 10 9 9
56 55 55 55 53 52 52 51 49 45 40 36 33 31 28 21 13 10 15 23 28 29 29 26 22 18 15 12 8 5 5 5 6 7 9 12 14 14 13 12 11 10 9
54 52 52 51 49 48 48 48 47 45 41 36 33 31 30 25 16 9 12 23 30 31 31 29 25 20 15 12 11 10 10 9 6 6 8 11 13 13 13 14 15 14 14
49 48 48 47 45 45 46 46 47 45 42 37 32 30 30 27 18 10 12 23 31 31 30 27 23 18 14 11 11 12 13 12 9 7 7 8 10 10 10 13 15 16 15
46 45 45 45 44 44 45 45 46 45 41 36 32 30 29 25 18 10 11 20 27 28 26 22 16 12 10 8 8 10 11 11 10 8 7 7 8 8 8 11 13 14 14
44 43 43 43 43 42 41 42 44 42 38 33 29 27 26 24 16 8 6 12 19 22 21 16 11 6 3 3 4 6 8 8 9 9 9 9 9 10 10 12 14 14 13
42 42 42 42 40 37 36 36 38 37 33 30 27 24 24 23 17 8 4 5 10 14 14 11 8 4 1 0 1 3 4 5 6 8 9 11 12 12 13 14 15 15 14
40 39 39 38 35 30 27 25 25 26 25 23 22 21 22 22 18 10 5 2 4 8 8 6 5 2 1 0 0 1 2 3 4 6 9 11 13 13 13 13 13 14 14
34 33 30 28 26 22 17 13 12 14 15 16 16 16 19 20 17 11 7 4 3 4 5 4 3 2 1 1 1 2 3 3 4 6 9 11 12 13 12 11 11 12 13
26 24 20 18 17 14 10 7 5 6 8 10 11 12 14 15 13 9 6 5 4 4 4 4 3 3 2 3 3 4 5 5 5 6 8 10 10 10 10 10 10 10 12
19 16 12 10 9 9 7 4 3 3 4 5 6 7 8 9 7 5 4 3 3 3 4 6 6 5 5 5 6 7 7 6 6 6 7 7 7 7 8 9 9 8 9
13 11 7 5 5 5 4 2 1 2 3 3 2 2 3 3 2 2 2 1 1 2 4 6 8 7 7 7 7 6 6 6 6 6 6 5 5 4 5 6 7 7 7
10 7 4 3 3 3 2 1 0 1 3 3 1 1 0 0 0 1 1 1 2 2 4 6 7 7 7 7 6 5 4 5 5 4 4 3 3 4 4 5 6 6 5
7 5 2 2 1 1 1 0 0 0 1 2 3 2 1 0 0 0 1 2 3 4 6 7 7 7 6 6 5 4 4 4 4 3 2 1 2 3 4 5 5 5 4
7 4 3 3 2 1 2 1 1 0 0 2 3 3 1 1 1 1 2 3 4 5 6 7 8 7 6 6 5 4 4 4 3 3 2 1 1 2 3 3 4 4 4
7 5 4 4 4 3 3 3 2 1 0 1 2 3 2 2 2 2 2 3 3 3 4 5 5 5 5 5 4 3 3 3 3 3 3 3 2 2 2 2 3 3 3
7 6 5 5 6 5 4 3 3 2 1 0 1 2 2 2 2 1 1 1 1 2 2 2 2 2 2 2 2 2 2 2 2 3 4 4 3 2 2 2 3 3 3
6 6 5 6 6 6 4 3 3 3 2 1 1 2 2 2 2 0 0 1 2 3 3 2 1 0 0 0 0 1 1 1 1 1 2 2 2 1 1 2 2 2 2
6 6 5 6 6 6 5 4 3 2 3 3 3 3 3 3 2 1 0 1 3 4 3 2 2 1 0 0 0 0 0 0 0 0 0 0 0 0 0 1 1 1 1
6 5 4 5 6 6 5 4 3 3 3 4 5 5 4 4 3 1 1 3 4 3 2 1 2 1 0 0 0 0 0 0 0 0 0 0 0 0 0 0 0 0 0
4 4 4 4 4 4 4 4 3 3 2 4 6 6 6 5 3 2 2 3 4 3 1 0 1 1 0 0 0 0 0 0 0 0 0 0 0 0 0 0 0 0 0

GEFSGL_con_probscp_258.txt.gz
Probability
32 30 26 23 20 17 16 15 11 7 5 4 4 5 6 6 6 5 5 4 4 4 4 3 3 3 3 3 2 2 1 0 0 1 2 2 1 0 0 0 0 0 0
31 31 28 25 22 19 17 16 13 9 8 7 6 6 5 5 6 5 5 5 5 4 4 3 3 3 3 3 1 1 0 0 0 0 1 1 0 0 0 0 0 0 0
32 32 30 28 26 22 20 19 17 14 14 14 12 10 8 7 6 6 5 4 4 4 3 3 3 4 4 3 1 0 0 0 0 0 1 1 1 0 1 1 0 0 0
35 34 32 30 29 26 23 21 21 21 20 20 18 16 13 10 8 7 6 5 4 4 4 3 4 5 6 4 2 1 1 0 0 0 1 1 1 1 2 2 1 0 0
37 35 33 30 29 27 24 22 22 23 22 21 20 18 15 11 8 8 9 9 8 7 7 6 5 5 5 3 3 2 1 0 0 0 0 0 1 2 3 3 2 1 0
39 37 34 31 29 26 24 23 21 21 20 20 19 18 16 12 9 8 10 11 11 11 11 10 7 5 3 2 1 1 0 0 0 0 0 0 1 2 4 4 4 3 2
42 40 37 34 31 27 24 23 21 19 19 19 18 18 17 15 10 8 8 10 12 13 12 11 8 6 4 3 2 1 1 1 1 1 1 1 3 4 5 6 6 5 5
43 42 40 37 33 28 26 24 21 19 18 17 17 17 17 14 10 6 6 8 11 12 11 10 9 8 6 5 5 4 4 3 2 2 2 2 3 5 6 6 6 6 6
45 44 42 39 35 31 28 25 22 20 18 17 16 16 15 11 7 4 4 8 11 12 12 11 10 9 7 6 6 5 5 4 3 2 1 1 1 3 4 5 6 6 6
43 42 40 38 34 31 28 25 23 22 20 18 16 14 11 7 4 2 3 7 10 11 11 10 8 6 4 3 4 4 4 4 3 2 1 1 0 1 3 4 6 6 6
35 35 34 33 31 28 25 23 23 22 20 17 13 10 8 5 2 1 2 4 8 9 9 8 6 3 2 1 2 3 3 3 3 3 3 2 1 1 3 4 5 6 6
27 27 28 28 27 24 21 19 18 18 16 12 8 5 4 2 1 0 0 2 4 6 7 6 5 3 1 0 1 2 2 2 3 3 3 3 3 3 3 3 3 4 4
24 23 22 23 21 18 15 13 12 10 7 5 3 1 1 1 0 0 0 0 1 3 5 5 4 2 0 0 0 1 1 2 3 3 3 3 3 3 3 3 2 2 2
21 20 18 16 14 11 8 6 5 3 1 1 0 0 0 0 0 1 1 0 0 1 2 3 2 1 1 1 1 1 1 3 3 3 3 3 3 3 4 4 3 1 1
18 17 15 12 9 6 4 3 2 0 0 0 0 0 0 0 0 1 1 0 0 0 1 1 2 2 2 2 2 2 3 3 3 3 3 3 3 3 4 4 3 1 0
16 14 12 10 7 6 4 2 1 0 0 0 0 0 0 0 0 0 0 0 0 0 0 1 1 2 3 3 3 3 3 3 3 3 2 3 3 3 3 3 1 0 0
14 12 10 8 6 5 4 2 1 0 0 0 0 0 0 0 0 0 0 0 0 0 0 0 0 1 2 2 3 3 3 3 3 2 1 1 2 3 3 2 1 0 0
12 10 8 6 5 4 3 2 1 0 0 0 0 0 0 0 0 0 0 0 0 0 0 0 0 1 1 1 2 3 3 3 2 2 1 1 1 2 2 1 0 0 0
10 8 7 6 5 4 3 2 1 0 0 0 0 0 0 0 0 0 0 0 0 0 0 0 0 0 0 0 1 2 2 1 1 1 1 0 0 1 1 1 0 0 0
9 7 6 6 5 3 2 1 0 0 0 0 0 0 0 0 0 0 0 0 0 0 0 0 0 0 0 0 0 1 1 0 0 0 0 0 0 0 0 0 0 0 0
7 7 6 6 4 2 1 0 0 0 0 0 0 0 0 0 0 0 0 0 0 0 0 0 0 0 0 0 0 0 0 0 0 0 0 0 0 0 0 0 0 0 0
7 6 6 5 2 1 0 0 0 0 0 0 0 0 0 0 0 0 0 0 0 0 0 0 0 0 0 0 0 0 0 0 0 0 0 0 0 0 0 0 0 0 0
7 5 4 4 2 1 1 1 0 0 0 0 0 0 0 0 0 0 0 0 0 0 0 0 0 0 0 0 0 0 0 0 0 0 0 0 0 0 0 0 0 0 0
7 6 4 3 3 3 2 1 0 0 0 0 0 0 0 0 0 0 0 0 0 0 0 0 0 0 0 0 0 0 0 0 0 0 0 0 0 0 0 0 0 0 0
6 6 5 4 3 3 2 1 0 0 0 0 0 0 0 0 0 0 0 0 0 0 0 0 0 0 0 0 0 0 0 0 0 0 0 0 0 0 0 0 0 0 0
6 6 6 5 4 3 1 0 0 0 0 0 0 0 0 0 0 0 0 0 0 0 0 0 0 0 0 0 0 0 0 0 0 0 0 0 0 0 0 0 0 0 0

GEFSGL_con_probscp_264.txt.gz
Probability
22 21 19 18 16 14 12 12 11 7 4 4 4 4 3 4 5 6 5 4 4 4 4 3 3 3 3 3 3 3 3 3 3 2 1 0 1 0 0 0 0 0 0
23 22 21 20 19 17 15 13 10 8 7 6 6 6 5 5 6 5 4 4 4 5 4 3 3 3 3 3 3 3 3 3 3 2 1 1 1 1 0 0 0 0 0
23 23 23 23 23 21 18 15 12 11 11 10 10 9 8 8 8 6 5 5 5 5 4 3 3 3 3 3 4 4 4 3 2 1 0 1 1 1 0 0 0 0 0
22 22 23 24 24 23 21 18 16 15 15 14 13 11 10 9 8 8 7 6 5 4 3 3 3 3 3 4 5 6 5 3 1 0 0 0 0 0 0 1 1 1 0
21 21 22 23 23 23 23 22 19 18 18 17 15 13 11 9 7 7 8 7 6 5 5 5 4 3 4 5 6 7 6 3 1 0 0 0 1 1 1 2 3 2 2
22 21 22 22 24 25 25 23 20 19 18 18 17 16 14 10 6 4 5 8 8 8 8 7 7 5 5 4 5 4 4 3 2 2 2 2 2 3 3 3 4 4 4
25 24 23 24 25 26 25 22 20 18 18 18 18 17 16 12 6 2 2 6 9 10 9 9 10 9 8 6 6 4 3 3 4 5 5 3 3 4 4 4 5 5 5
29 27 25 26 27 26 24 22 21 20 20 20 19 18 17 11 4 0 1 4 9 10 9 10 12 12 10 8 7 6 5 4 4 4 4 3 3 3 4 5 5 5 5
31 29 27 27 28 25 23 23 24 23 22 22 21 20 17 12 5 1 1 4 8 8 8 9 11 10 8 6 5 5 4 4 3 2 1 2 2 2 3 4 4 4 4
31 30 28 27 26 25 24 25 25 24 23 23 23 21 18 13 7 2 2 5 7 6 5 7 8 6 4 2 2 3 3 3 3 2 1 1 2 2 2 3 3 3 3
26 26 25 24 23 24 23 22 22 22 22 22 21 19 15 10 6 2 1 4 6 5 4 5 4 3 1 0 1 2 2 3 3 3 3 2 2 2 3 3 3 3 3
18 19 20 20 20 20 19 18 18 19 19 18 17 14 10 5 2 0 0 2 3 4 3 3 2 1 0 0 0 1 1 1 3 3 3 3 3 3 3 3 3 3 3
15 16 17 18 19 18 16 16 16 16 15 14 12 9 5 3 1 0 0 0 1 2 2 1 0 0 0 0 0 0 0 1 2 3 3 3 3 3 3 3 3 3 3
16 15 16 18 19 17 14 13 13 13 11 10 8 5 4 2 1 0 0 0 0 1 1 0 0 0 0 0 0 0 0 1 2 3 3 3 3 3 3 3 3 3 3
14 14 15 16 17 14 10 8 8 8 7 6 5 4 3 2 1 0 0 0 0 0 0 0 0 0 0 0 0 0 0 0 1 3 3 3 3 3 3 3 3 3 3
13 14 15 15 15 11 6 4 4 5 4 4 3 3 3 2 1 0 0 0 0 0 0 0 0 0 0 0 0 0 0 0 1 2 3 3 3 3 3 3 3 3 3
13 14 15 15 13 9 5 3 3 3 3 2 2 2 2 1 0 0 0 0 0 0 0 0 0 0 0 1 1 1 0 0 0 1 2 2 3 3 3 3 3 3 3
14 15 15 14 12 8 4 3 3 3 3 2 1 1 1 0 0 0 0 0 0 0 0 0 0 0 0 1 2 1 0 0 0 0 1 1 1 2 2 3 3 3 3
14 14 13 12 10 7 4 3 3 3 3 3 1 0 0 0 0 0 0 0 0 0 0 0 0 0 0 1 2 2 0 0 0 0 0 0 0 1 1 1 2 2 2
13 12 11 10 9 6 4 3 3 3 3 3 2 1 0 0 0 0 0 0 0 0 0 0 0 0 0 1 2 1 0 0 0 0 0 0 0 0 0 0 1 2 2
12 11 10 10 8 5 3 3 3 3 3 3 2 1 0 0 0 0 0 0 0 0 0 0 0 0 1 2 1 0 0 0 0 0 0 0 0 0 0 0 1 2 2
10 9 9 9 7 4 3 3 3 3 3 3 2 1 0 0 0 0 0 0 0 0 0 0 0 1 2 2 1 0 0 0 0 0 0 0 0 0 0 0 1 1 1
8 8 8 7 5 3 3 3 3 3 4 3 2 1 0 0 0 0 0 0 0 0 0 0 0 1 2 2 1 0 0 0 0 0 0 0 0 0 0 0 0 0 0
7 7 6 5 3 2 2 2 2 3 3 2 1 0 0 0 0 0 0 0 0 0 0 0 0 0 1 1 0 0 0 0 0 0 0 0 0 0 0 0 0 0 0
6 5 5 3 1 0 1 1 1 1 1 1 0 0 0 0 0 0 0 0 0 0 0 0 0 0 0 0 0 0 0 0 0 0 0 0 0 0 0 0 0 0 0
4 4 2 1 0 0 0 0 0 0 0 0 0 0 0 0 0 0 0 0 0 0 0 0 0 0 0 0 0 0 0 0 0 0 0 0 0 0 0 0 0 0 0

GEFSGL_con_probscp_270.txt.gz
Probability
28 27 25 25 25 24 23 21 20 20 19 17 17 17 17 17 17 17 16 15 13 13 13 13 15 15 14 14 13 12 13 14 11 10 13 16 19 19 17 14 9 5 3
29 28 26 26 27 25 23 21 20 20 19 19 20 21 20 19 18 18 17 15 14 14 14 13 14 14 14 14 14 12 10 11 11 12 15 19 21 21 20 16 10 6 5
31 29 27 28 29 28 25 23 21 20 20 22 24 25 23 20 18 18 18 17 16 16 16 14 13 14 15 16 16 14 12 12 13 15 19 22 22 22 21 16 11 10 9
32 31 29 28 30 30 28 25 23 21 20 22 24 24 22 20 19 19 19 17 16 15 16 15 14 14 16 16 17 18 19 18 18 18 21 23 23 22 21 17 15 15 16
35 34 31 31 33 34 33 30 27 24 24 25 25 24 22 19 17 19 20 19 16 15 15 16 15 14 13 12 12 15 19 21 22 20 19 21 22 22 22 20 17 18 20
38 37 35 36 37 39 39 37 32 31 30 31 30 28 25 20 14 14 18 21 19 17 16 15 14 12 10 8 6 6 9 14 18 19 19 20 22 23 23 20 17 17 18
40 40 40 41 42 43 44 42 39 38 37 36 35 31 28 22 13 9 12 18 20 18 17 16 13 10 9 9 6 4 5 8 11 15 17 18 21 25 25 21 17 15 14
43 44 45 47 48 47 46 46 45 43 41 38 35 33 30 24 15 7 6 13 18 16 16 18 16 12 9 9 9 9 10 9 7 8 11 12 15 19 20 19 16 13 11
48 48 49 51 52 52 50 49 47 45 42 38 35 33 32 26 16 6 5 13 17 17 18 19 17 13 9 7 10 13 13 12 8 5 5 5 5 7 9 12 11 9 8
48 48 48 50 51 51 50 48 46 43 41 38 35 33 32 26 15 5 6 15 21 23 23 19 14 9 6 5 8 11 11 10 8 6 4 2 1 2 4 6 7 7 6
42 43 44 45 44 43 43 43 43 41 39 37 34 31 27 21 12 4 6 14 22 25 24 18 10 4 2 2 3 5 6 6 6 7 5 3 2 3 4 5 7 7 8
34 36 38 38 35 33 34 36 37 37 34 31 28 24 20 16 10 5 4 9 16 20 20 14 7 2 0 0 0 1 2 1 3 5 4 3 2 3 4 6 7 8 8
29 31 32 32 30 27 28 30 32 32 28 24 19 16 15 14 10 5 2 3 7 12 11 8 3 1 0 0 0 0 0 0 1 3 2 2 3 3 4 5 7 7 7
26 28 28 27 26 24 24 26 27 27 24 20 17 14 12 12 9 5 2 2 3 5 5 2 1 0 0 0 0 0 0 0 0 1 2 3 3 3 3 4 6 7 7
24 25 24 23 22 21 20 20 20 19 18 16 15 14 10 9 7 5 3 2 2 2 3 2 0 0 0 0 0 0 1 1 0 1 2 3 4 4 3 4 5 6 6
23 23 22 22 21 20 18 15 13 11 10 9 10 9 8 5 3 2 2 1 1 1 2 2 0 0 0 0 0 1 2 2 1 0 1 3 4 3 3 3 4 4 4
19 20 21 22 22 21 19 15 11 8 6 5 4 4 4 2 1 0 0 0 0 1 2 2 1 0 0 0 0 1 2 2 1 0 1 2 3 3 3 3 3 3 3
16 17 20 22 23 22 19 16 12 9 7 5 3 2 1 1 0 0 0 0 0 0 1 2 2 1 0 0 0 1 2 2 1 0 1 2 3 3 3 3 3 3 3
14 16 18 20 21 20 17 15 12 9 7 6 4 2 1 0 0 0 0 1 1 0 1 2 2 1 0 0 0 0 1 1 0 0 1 2 3 3 3 3 3 3 3
12 13 15 17 18 16 14 13 11 9 8 7 5 3 1 1 1 0 0 1 2 1 0 1 1 1 0 0 0 0 0 0 0 0 1 2 3 3 3 3 3 3 3
11 11 12 14 15 14 12 12 11 9 9 8 6 3 1 2 2 1 0 1 1 1 0 0 1 1 0 0 0 0 0 0 0 0 1 2 3 3 3 3 3 3 2
12 11 11 12 12 12 12 11 10 10 10 9 6 3 2 2 3 2 1 0 0 0 0 0 1 1 0 0 0 0 0 0 0 0 1 3 3 3 3 3 2 1 1
10 10 8 8 9 10 10 10 10 10 9 8 6 3 2 3 3 2 1 0 0 0 0 0 0 0 0 0 0 0 0 0 0 0 1 2 3 3 3 2 1 0 0
6 5 4 4 6 9 9 10 10 10 9 8 6 4 2 2 2 2 1 0 0 0 0 0 0 0 0 0 0 0 0 0 0 0 1 2 3 3 2 1 0 0 0
2 2 2 3 7 9 9 10 9 9 9 8 6 3 2 2 2 2 2 1 1 0 0 0 0 0 0 0 0 0 0 0 0 0 0 1 2 1 1 0 0 0 0
1 1 2 5 7 9 10 10 9 8 8 7 5 3 2 2 2 3 3 2 2 1 0 0 0 0 0 0 0 0 0 0 0 0 0 1 1 0 0 0 0 0 0

GEFSGL_con_probscp_276.txt.gz
Probability
64 61 59 58 51 42 36 33 29 29 32 34 36 39 39 35 32 31 29 28 28 26 23 20 18 17 16 15 14 13 13 11 9 10 13 15 17 18 18 20 21 16 11
64 63 61 59 53 46 40 36 33 33 35 37 39 40 39 38 34 31 29 30 30 28 24 20 18 18 18 17 15 14 13 12 10 11 15 17 19 22 23 22 19 14 13
64 64 62 58 54 49 44 39 38 40 39 39 39 38 38 38 34 30 29 29 29 27 24 20 18 19 20 19 16 14 13 13 14 16 18 19 21 24 27 24 19 15 14
66 65 61 57 53 50 46 43 44 45 44 42 40 39 37 34 30 28 27 28 27 26 24 21 18 18 19 17 15 14 14 15 17 19 19 19 20 22 24 22 19 16 15
71 68 63 57 54 53 50 49 50 50 49 48 47 44 37 30 26 26 28 28 28 27 25 23 19 17 15 13 11 11 12 14 17 18 17 16 16 17 16 14 13 13 12
72 69 63 59 57 55 55 55 56 55 53 53 53 49 39 28 23 24 27 31 31 30 29 25 19 14 11 9 7 6 7 9 12 14 15 13 12 10 8 7 7 9 9
70 67 62 60 59 59 59 60 59 57 55 55 55 50 41 29 20 17 22 30 33 32 31 26 19 14 11 10 9 7 7 6 8 11 12 11 9 7 5 6 7 8 8
68 65 61 60 61 61 62 61 60 58 56 55 54 49 42 29 17 11 15 27 32 31 30 27 21 15 12 13 14 13 11 8 7 7 7 7 6 6 5 6 8 8 7
65 64 62 61 61 60 61 60 58 56 55 53 50 45 39 29 17 8 12 24 31 30 29 26 20 15 11 12 15 16 14 11 6 4 3 3 3 3 3 5 6 7 6
62 61 61 61 59 57 57 56 53 51 49 48 44 40 35 27 16 7 10 22 30 29 27 22 16 11 8 8 12 14 14 12 8 4 2 1 1 1 2 4 6 6 6
57 55 56 57 53 49 48 48 47 44 42 42 40 36 31 22 12 6 7 16 24 25 23 19 13 7 5 5 8 10 10 10 9 7 4 2 1 2 3 5 6 6 5
47 46 48 49 44 40 40 42 41 39 37 38 37 33 26 18 12 7 5 9 14 18 19 16 9 4 2 2 3 4 4 5 6 6 4 2 2 2 2 3 4 5 6
39 38 39 40 39 38 38 37 37 36 35 34 33 29 22 18 14 9 5 4 6 10 13 10 4 1 0 0 0 0 1 3 4 4 3 2 2 1 1 1 3 4 5
33 33 34 35 37 39 38 34 33 33 33 32 30 26 21 18 15 11 8 5 4 5 6 5 3 1 1 1 1 1 1 3 4 3 3 1 1 1 0 1 2 3 4
29 29 30 32 35 36 34 28 26 26 27 26 26 24 20 15 12 10 8 6 4 3 4 4 3 3 3 2 2 2 3 3 3 3 2 1 1 0 0 0 1 3 3
26 26 27 28 30 31 29 23 18 15 14 14 18 18 15 11 8 6 5 4 3 3 3 4 4 4 4 4 3 3 3 2 2 1 2 2 2 1 0 0 1 2 3
25 25 25 24 24 26 26 22 17 12 8 7 9 10 9 6 4 2 1 1 1 2 3 3 4 5 5 5 4 3 1 1 1 1 1 2 2 1 0 0 0 1 2
23 22 21 20 20 23 24 23 19 15 12 10 7 4 3 2 1 0 0 1 2 3 3 4 5 5 5 5 5 3 2 1 0 0 1 1 1 0 0 0 0 0 1
21 19 18 17 18 20 22 20 19 16 14 13 10 5 2 0 0 0 1 2 3 3 3 3 4 4 4 5 5 5 3 2 0 0 0 0 0 0 0 0 0 1 1
19 16 13 13 14 17 18 17 17 16 14 13 11 7 3 1 1 0 2 4 4 3 3 3 4 4 4 5 6 6 4 2 0 0 0 0 0 0 0 0 0 1 2
15 12 9 10 12 16 16 14 14 15 14 13 11 7 4 3 3 2 3 5 5 4 3 4 4 5 5 5 5 4 2 1 0 0 0 0 0 0 0 0 0 1 2
12 10 9 11 14 16 15 13 12 13 13 12 11 7 4 5 6 5 4 4 4 3 3 3 4 4 4 4 3 1 1 0 0 0 0 0 0 0 0 0 0 0 1
10 9 10 12 14 15 14 13 11 10 10 10 9 8 6 6 7 6 4 3 3 3 3 2 2 2 2 2 1 0 0 0 0 0 0 0 0 0 0 0 0 0 0
8 8 9 10 12 13 12 12 10 7 6 6 7 8 7 6 6 4 3 2 2 2 1 1 1 1 1 1 0 0 0 0 0 0 0 0 0 0 0 0 0 0 0
9 8 8 9 11 11 10 10 8 5 3 4 7 9 7 5 3 3 3 2 1 1 1 0 1 1 1 0 0 0 0 0 0 0 0 0 0 0 0 0 0 0 0
9 8 8 10 12 11 9 8 6 4 3 5 8 9 7 4 2 3 3 2 2 2 2 1 2 2 1 0 0 0 0 0 0 0 0 0 0 0 0 0 0 0 0